| time (UTC) | temp F | wind direction | speed MPH | gust MPH | rain 1hr in | rain 24hr in | rain mn in | humidity % | barometer mb |
| 20260507155005 | 58 | 189 | 6.0 | 15.0 | 0.05 | 0.15 | 0.15 | 80 | 999.3 |
| 20260507153505 | 61 | 281 | 4.0 | 17.0 | 0.00 | 0.11 | 0.11 | 68 | 1001.9 |
| 20260507153005 | 61 | 290 | 8.0 | 16.0 | 0.00 | 0.11 | 0.11 | 64 | 1004.0 |
| 20260507152505 | 62 | 283 | 8.0 | 16.0 | 0.00 | 0.11 | 0.11 | 61 | 1003.8 |
| 20260507152004 | 63 | 257 | 8.0 | 21.0 | 0.00 | 0.11 | 0.11 | 59 | 1002.0 |
| 20260507151505 | 63 | 232 | 7.0 | 21.0 | 0.00 | 0.11 | 0.11 | 59 | 1000.5 |
| 20260507151005 | 63 | 237 | 9.0 | 16.0 | 0.00 | 0.11 | 0.11 | 60 | 1000.2 |
| 20260507150505 | 63 | 238 | 7.0 | 20.0 | 0.00 | 0.11 | 0.11 | 62 | 1000.0 |
| 20260507150006 | 63 | 224 | 5.0 | 20.0 | 0.00 | 0.11 | 0.11 | 63 | 999.6 |
| 20260507145504 | 62 | 210 | 8.0 | 15.0 | 0.01 | 0.11 | 0.11 | 64 | 998.9 |
| 20260507145004 | 62 | 205 | 4.0 | 22.0 | 0.01 | 0.11 | 0.11 | 67 | 998.6 |
| 20260507144504 | 61 | 215 | 5.0 | 22.0 | 0.01 | 0.11 | 0.11 | 66 | 998.5 |
| 20260507143504 | 61 | 228 | 14.0 | 31.0 | 0.01 | 0.11 | 0.11 | 67 | 998.9 |
| 20260507143005 | 62 | 225 | 11.0 | 22.0 | 0.01 | 0.11 | 0.11 | 68 | 998.7 |
| 20260507142504 | 61 | 236 | 9.0 | 22.0 | 0.01 | 0.11 | 0.11 | 70 | 998.5 |
| 20260507142005 | 61 | 228 | 5.0 | 21.0 | 0.01 | 0.11 | 0.11 | 74 | 998.4 |
| 20260507141505 | 60 | 240 | 4.0 | 23.0 | 0.01 | 0.11 | 0.11 | 78 | 998.8 |
| 20260507141006 | 60 | 245 | 9.0 | 23.0 | 0.01 | 0.11 | 0.11 | 77 | 999.2 |
| 20260507140505 | 60 | 244 | 7.0 | 22.0 | 0.01 | 0.11 | 0.11 | 74 | 999.6 |
| 20260507140004 | 62 | 244 | 5.0 | 15.0 | 0.00 | 0.09 | 0.09 | 69 | 1000.1 |
| 20260507134504 | 62 | 219 | 9.0 | 22.0 | 0.00 | 0.09 | 0.09 | 63 | 1000.3 |
| 20260507134004 | 62 | 222 | 6.0 | 22.0 | 0.00 | 0.09 | 0.09 | 64 | 998.6 |
| 20260507133005 | 63 | 198 | 7.0 | 16.0 | 0.00 | 0.09 | 0.09 | 67 | 997.3 |
| 20260507132504 | 63 | 196 | 10.0 | 15.0 | 0.00 | 0.09 | 0.09 | 67 | 997.3 |
| 20260507132004 | 63 | 206 | 5.0 | 15.0 | 0.00 | 0.09 | 0.09 | 67 | 997.1 |
| 20260507131504 | 64 | 209 | 8.0 | 16.0 | 0.00 | 0.09 | 0.09 | 67 | 996.9 |
| 20260507131005 | 64 | 190 | 9.0 | 16.0 | 0.00 | 0.09 | 0.09 | 68 | 997.1 |
| 20260507125504 | 64 | 187 | 8.0 | 15.0 | 0.00 | 0.09 | 0.09 | 67 | 997.5 |
| 20260507125004 | 64 | 188 | 10.0 | 22.0 | 0.00 | 0.09 | 0.09 | 65 | 997.2 |
| 20260507124504 | 65 | 191 | 5.0 | 22.0 | 0.00 | 0.09 | 0.09 | 67 | 997.1 |
| 20260507124005 | 65 | 184 | 11.0 | 22.0 | 0.00 | 0.09 | 0.09 | 67 | 996.6 |
| 20260507123004 | 65 | 185 | 8.0 | 15.0 | 0.00 | 0.09 | 0.09 | 73 | 996.6 |
| 20260507122004 | 65 | 176 | 6.0 | 16.0 | 0.00 | 0.09 | 0.09 | 76 | 996.7 |
| 20260507121504 | 65 | 183 | 6.0 | 17.0 | 0.00 | 0.09 | 0.09 | 78 | 996.3 |
| 20260507121004 | 65 | 189 | 7.0 | 21.0 | 0.00 | 0.09 | 0.09 | 79 | 996.5 |
| 20260507120504 | 65 | 190 | 9.0 | 21.0 | 0.00 | 0.09 | 0.09 | 81 | 996.4 |
| 20260507120005 | 65 | 185 | 9.0 | 17.0 | 0.00 | 0.09 | 0.09 | 82 | 996.2 |
| 20260507115504 | 66 | 187 | 8.0 | 18.0 | 0.00 | 0.09 | 0.09 | 84 | 996.1 |
| 20260507115004 | 66 | 192 | 6.0 | 18.0 | 0.00 | 0.09 | 0.09 | 84 | 996.0 |
| 20260507114504 | 66 | 187 | 9.0 | 17.0 | 0.00 | 0.09 | 0.09 | 84 | 995.7 |
| 20260507114005 | 66 | 192 | 8.0 | 16.0 | 0.00 | 0.09 | 0.09 | 84 | 995.9 |
| 20260507113505 | 66 | 185 | 8.0 | 16.0 | 0.00 | 0.09 | 0.09 | 84 | 995.9 |
| 20260507113004 | 66 | 177 | 8.0 | 14.0 | 0.00 | 0.09 | 0.09 | 85 | 995.6 |
| 20260507112504 | 67 | 182 | 4.0 | 11.0 | 0.00 | 0.09 | 0.09 | 85 | 995.6 |
| 20260507112004 | 67 | 176 | 6.0 | 20.0 | 0.00 | 0.09 | 0.09 | 85 | 995.7 |
| 20260507111506 | 66 | 193 | 9.0 | 22.0 | 0.00 | 0.09 | 0.09 | 85 | 995.3 |
| 20260507111004 | 67 | 190 | 9.0 | 22.0 | 0.00 | 0.09 | 0.09 | 85 | 995.1 |
| 20260507110504 | 67 | 176 | 8.0 | 18.0 | 0.00 | 0.09 | 0.09 | 86 | 995.2 |
| 20260507110005 | 67 | 181 | 8.0 | 20.0 | 0.00 | 0.09 | 0.09 | 86 | 995.1 |
| 20260507105504 | 67 | 189 | 8.0 | 20.0 | 0.00 | 0.09 | 0.09 | 86 | 995.0 |
| 20260507105004 | 67 | 186 | 9.0 | 17.0 | 0.00 | 0.09 | 0.09 | 86 | 995.1 |
| 20260507104004 | 67 | 189 | 8.0 | 18.0 | 0.00 | 0.09 | 0.09 | 87 | 994.6 |
| 20260507103504 | 67 | 192 | 8.0 | 18.0 | 0.00 | 0.09 | 0.09 | 87 | 994.6 |
| 20260507103004 | 67 | 186 | 7.0 | 15.0 | 0.00 | 0.09 | 0.09 | 86 | 994.3 |
| 20260507102006 | 67 | 184 | 6.0 | 15.0 | 0.00 | 0.09 | 0.09 | 87 | 993.7 |
| 20260507101504 | 67 | 167 | 7.0 | 13.0 | 0.00 | 0.09 | 0.09 | 87 | 993.8 |
| 20260507101005 | 67 | 177 | 6.0 | 16.0 | 0.00 | 0.09 | 0.09 | 87 | 994.0 |
| 20260507100504 | 67 | 184 | 7.0 | 20.0 | 0.01 | 0.09 | 0.09 | 87 | 993.7 |
| 20260507100005 | 67 | 186 | 9.0 | 20.0 | 0.01 | 0.09 | 0.09 | 87 | 993.5 |
| 20260507095504 | 67 | 201 | 6.0 | 14.0 | 0.01 | 0.09 | 0.09 | 87 | 993.3 |
| 20260507095005 | 68 | 204 | 8.0 | 15.0 | 0.01 | 0.09 | 0.09 | 86 | 993.0 |
| 20260507094505 | 68 | 199 | 4.0 | 17.0 | 0.01 | 0.09 | 0.09 | 87 | 993.1 |
| 20260507093504 | 68 | 192 | 6.0 | 17.0 | 0.01 | 0.09 | 0.09 | 88 | 992.5 |
| 20260507093004 | 68 | 185 | 11.0 | 20.0 | 0.01 | 0.09 | 0.09 | 88 | 992.4 |
| 20260507092505 | 68 | 198 | 4.0 | 20.0 | 0.01 | 0.09 | 0.09 | 88 | 992.2 |
| 20260507092004 | 68 | 214 | 8.0 | 16.0 | 0.01 | 0.09 | 0.09 | 88 | 992.3 |
| 20260507091504 | 68 | 216 | 6.0 | 15.0 | 0.01 | 0.09 | 0.09 | 88 | 992.1 |
| 20260507091004 | 68 | 206 | 8.0 | 15.0 | 0.01 | 0.09 | 0.09 | 88 | 991.9 |
| 20260507090505 | 68 | 190 | 5.0 | 15.0 | 0.00 | 0.08 | 0.08 | 89 | 992.3 |
| 20260507090006 | 68 | 194 | 7.0 | 15.0 | 0.00 | 0.08 | 0.08 | 89 | 992.2 |
| 20260507085505 | 68 | 204 | 4.0 | 11.0 | 0.00 | 0.08 | 0.08 | 89 | 992.9 |
| 20260507085005 | 67 | 212 | 4.0 | 11.0 | 0.00 | 0.08 | 0.08 | 89 | 993.0 |
| 20260507084005 | 67 | 189 | 4.0 | 11.0 | 0.04 | 0.08 | 0.08 | 90 | 993.3 |
| 20260507083505 | 67 | 202 | 4.0 | 11.0 | 0.04 | 0.08 | 0.08 | 90 | 992.5 |
| 20260507083004 | 67 | 207 | 6.0 | 13.0 | 0.04 | 0.08 | 0.08 | 90 | 992.3 |
| 20260507082504 | 67 | 189 | 2.0 | 14.0 | 0.05 | 0.08 | 0.08 | 89 | 992.7 |
| 20260507082005 | 67 | 186 | 4.0 | 14.0 | 0.06 | 0.08 | 0.08 | 89 | 992.8 |
| 20260507081505 | 67 | 183 | 5.0 | 13.0 | 0.08 | 0.08 | 0.08 | 90 | 992.8 |
| 20260507081005 | 67 | 183 | 5.0 | 11.0 | 0.08 | 0.08 | 0.08 | 90 | 992.8 |
| 20260507080504 | 67 | 191 | 4.0 | 8.0 | 0.08 | 0.08 | 0.08 | 91 | 992.9 |
| 20260507080005 | 67 | 188 | 3.0 | 7.0 | 0.08 | 0.08 | 0.08 | 91 | 993.2 |
| 20260507075504 | 67 | 167 | 4.0 | 7.0 | 0.08 | 0.08 | 0.08 | 90 | 993.1 |
| 20260507075005 | 68 | 155 | 4.0 | 7.0 | 0.08 | 0.08 | 0.08 | 90 | 993.2 |
| 20260507074505 | 68 | 148 | 5.0 | 7.0 | 0.05 | 0.05 | 0.05 | 90 | 993.1 |
| 20260507074005 | 68 | 149 | 2.0 | 7.0 | 0.05 | 0.05 | 0.05 | 90 | 993.6 |
| 20260507073504 | 68 | 163 | 2.0 | 8.0 | 0.05 | 0.05 | 0.05 | 89 | 993.3 |
| 20260507073004 | 69 | 165 | 2.0 | 11.0 | 0.05 | 0.05 | 0.05 | 87 | 993.2 |
| 20260507072504 | 69 | 158 | 4.0 | 11.0 | 0.04 | 0.04 | 0.04 | 85 | 993.6 |
| 20260507072005 | 71 | 152 | 6.0 | 8.0 | 0.02 | 0.02 | 0.02 | 81 | 993.7 |
| 20260507071504 | 72 | 166 | 3.0 | 11.0 | 0.00 | 0.00 | 0.00 | 79 | 993.5 |
| 20260507071005 | 72 | 176 | 5.0 | 11.0 | 0.00 | 0.00 | 0.00 | 79 | 993.7 |
| 20260507070505 | 72 | 169 | 4.0 | 13.0 | 0.00 | 0.00 | 0.00 | 81 | 993.4 |
| 20260507070009 | 73 | 157 | 5.0 | 13.0 | 0.00 | 0.00 | 0.00 | 82 | 993.1 |
| 20260507065504 | 73 | 156 | 4.0 | 13.0 | 0.00 | 0.00 | 0.00 | 83 | 993.2 |
| 20260507065004 | 75 | 173 | 4.0 | 8.0 | 0.00 | 0.00 | 0.00 | 87 | 993.3 |
| 20260507064505 | 75 | 225 | 1.0 | 7.0 | 0.00 | 0.00 | 0.00 | 87 | 993.1 |
| 20260507064005 | 75 | 235 | 4.0 | 8.0 | 0.00 | 0.00 | 0.00 | 87 | 993.3 |
| 20260507063504 | 75 | 234 | 4.0 | 8.0 | 0.00 | 0.00 | 0.00 | 88 | 993.2 |
| 20260507063004 | 75 | 350 | 1.0 | 4.0 | 0.00 | 0.00 | 0.00 | 87 | 992.9 |
| 20260507062505 | 75 | 346 | 2.0 | 4.0 | 0.00 | 0.00 | 0.00 | 87 | 992.4 |
| 20260507062005 | 75 | 350 | 2.0 | 6.0 | 0.00 | 0.00 | 0.00 | 87 | 992.4 |
| 20260507061504 | 75 | 5 | 2.0 | 6.0 | 0.00 | 0.00 | 0.00 | 87 | 992.5 |
| 20260507061004 | 75 | 2 | 2.0 | 6.0 | 0.00 | 0.00 | 0.00 | 87 | 992.6 |
| 20260507055504 | 75 | 316 | 2.0 | 6.0 | 0.00 | 0.00 | 0.00 | 86 | 992.4 |
| 20260507055005 | 75 | 323 | 2.0 | 4.0 | 0.00 | 0.00 | 0.00 | 86 | 992.8 |
| 20260507054505 | 75 | 324 | 2.0 | 4.0 | 0.00 | 0.00 | 0.00 | 86 | 992.8 |
| 20260507053504 | 75 | 312 | 4.0 | 4.0 | 0.00 | 0.00 | 0.00 | 86 | 993.2 |
| 20260507053005 | 75 | 318 | 2.0 | 6.0 | 0.00 | 0.00 | 0.00 | 86 | 993.2 |
| 20260507052504 | 75 | 327 | 3.0 | 6.0 | 0.00 | 0.00 | 0.00 | 86 | 993.3 |
| 20260507052004 | 75 | 330 | 3.0 | 7.0 | 0.00 | 0.00 | 0.00 | 86 | 993.5 |
| 20260507051505 | 75 | 339 | 3.0 | 7.0 | 0.00 | 0.00 | 0.00 | 85 | 993.2 |
| 20260507050505 | 76 | 352 | 3.0 | 7.0 | 0.00 | 0.00 | 0.00 | 85 | 993.1 |
| 20260507050005 | 76 | 359 | 3.0 | 7.0 | 0.00 | 0.00 | 0.00 | 84 | 993.2 |
| 20260507045505 | 76 | 358 | 2.0 | 7.0 | 0.00 | 0.00 | 0.00 | 84 | 993.0 |
| 20260507045005 | 76 | 354 | 2.0 | 8.0 | 0.00 | 0.00 | 0.00 | 84 | 993.0 |
| 20260507044505 | 76 | 347 | 4.0 | 8.0 | 0.00 | 0.00 | 0.00 | 84 | 992.9 |
| 20260507044004 | 76 | 343 | 2.0 | 8.0 | 0.00 | 0.00 | 0.00 | 83 | 993.1 |
| 20260507043504 | 76 | 348 | 4.0 | 8.0 | 0.00 | 0.00 | 0.00 | 84 | 993.2 |
| 20260507042504 | 76 | 346 | 4.0 | 8.0 | 0.00 | 0.00 | 0.00 | 83 | 993.0 |
| 20260507042004 | 76 | 344 | 4.0 | 8.0 | 0.00 | 0.00 | 0.00 | 83 | 993.1 |
| 20260507041504 | 76 | 339 | 4.0 | 8.0 | 0.00 | 0.00 | 0.00 | 83 | 993.1 |
| 20260507041005 | 77 | 344 | 4.0 | 8.0 | 0.00 | 0.00 | 0.00 | 82 | 993.1 |
| 20260507040005 | 77 | 348 | 2.0 | 7.0 | 0.00 | 0.00 | 0.00 | 81 | 993.2 |
| 20260507035004 | 78 | 353 | 3.0 | 8.0 | 0.00 | 0.00 | 0.00 | 80 | 993.3 |
| 20260507034505 | 78 | 355 | 4.0 | 11.0 | 0.00 | 0.00 | 0.00 | 80 | 993.5 |
| 20260507033504 | 77 | 353 | 4.0 | 9.0 | 0.00 | 0.00 | 0.00 | 81 | 993.7 |
| 20260507033005 | 77 | 2 | 5.0 | 8.0 | 0.00 | 0.00 | 0.00 | 82 | 993.3 |
| 20260507032505 | 77 | 351 | 4.0 | 7.0 | 0.00 | 0.00 | 0.00 | 82 | 993.6 |
| 20260507032004 | 77 | 351 | 3.0 | 7.0 | 0.00 | 0.00 | 0.00 | 81 | 993.6 |
| 20260507031505 | 77 | 347 | 2.0 | 4.0 | 0.00 | 0.00 | 0.00 | 81 | 993.7 |
| 20260507031005 | 77 | 343 | 3.0 | 6.0 | 0.00 | 0.00 | 0.00 | 81 | 993.8 |
| 20260507030504 | 77 | 353 | 3.0 | 6.0 | 0.00 | 0.00 | 0.00 | 81 | 993.8 |
| 20260507030005 | 77 | 8 | 4.0 | 6.0 | 0.00 | 0.00 | 0.00 | 81 | 993.9 |
| 20260507025504 | 78 | 9 | 2.0 | 4.0 | 0.00 | 0.00 | 0.00 | 80 | 993.8 |
| 20260507025005 | 78 | 356 | 2.0 | 4.0 | 0.00 | 0.00 | 0.00 | 80 | 993.9 |
| 20260507024005 | 78 | 351 | 1.0 | 4.0 | 0.00 | 0.00 | 0.00 | 80 | 994.1 |
| 20260507023505 | 78 | 346 | 1.0 | 4.0 | 0.00 | 0.00 | 0.00 | 80 | 994.0 |
| 20260507023004 | 78 | 352 | 4.0 | 4.0 | 0.00 | 0.00 | 0.00 | 79 | 993.9 |
| 20260507022504 | 78 | 353 | 3.0 | 4.0 | 0.00 | 0.00 | 0.00 | 79 | 994.2 |
| 20260507022005 | 78 | 344 | 2.0 | 4.0 | 0.00 | 0.00 | 0.00 | 79 | 994.0 |
| 20260507020005 | 78 | 343 | 3.0 | 4.0 | 0.00 | 0.00 | 0.00 | 79 | 994.1 |
| 20260507015505 | 78 | 348 | 2.0 | 4.0 | 0.00 | 0.00 | 0.00 | 79 | 994.2 |
| 20260507015004 | 78 | 355 | 2.0 | 4.0 | 0.00 | 0.00 | 0.00 | 80 | 993.9 |
| 20260507014504 | 78 | 356 | 2.0 | 4.0 | 0.00 | 0.00 | 0.00 | 80 | 993.9 |
| 20260507014005 | 78 | 354 | 2.0 | 6.0 | 0.00 | 0.00 | 0.00 | 80 | 993.9 |
| 20260507013505 | 77 | 354 | 2.0 | 6.0 | 0.00 | 0.00 | 0.00 | 80 | 993.6 |
| 20260507013004 | 78 | 11 | 2.0 | 6.0 | 0.00 | 0.00 | 0.00 | 80 | 993.6 |
| 20260507012504 | 78 | 17 | 2.0 | 6.0 | 0.00 | 0.00 | 0.00 | 79 | 993.3 |
| 20260507012005 | 78 | 8 | 2.0 | 7.0 | 0.00 | 0.00 | 0.00 | 79 | 993.4 |
| 20260507011504 | 78 | 354 | 2.0 | 7.0 | 0.00 | 0.00 | 0.00 | 79 | 993.2 |
| 20260507011004 | 78 | 352 | 3.0 | 7.0 | 0.00 | 0.00 | 0.00 | 79 | 993.4 |
| 20260507010504 | 78 | 2 | 3.0 | 6.0 | 0.00 | 0.00 | 0.00 | 79 | 993.3 |
| 20260507005005 | 78 | 6 | 2.0 | 8.0 | 0.00 | 0.00 | 0.00 | 78 | 993.5 |
| 20260507004504 | 78 | 343 | 5.0 | 8.0 | 0.00 | 0.00 | 0.00 | 78 | 993.4 |
| 20260507004004 | 78 | 339 | 2.0 | 8.0 | 0.00 | 0.00 | 0.00 | 77 | 993.4 |
| 20260507003505 | 78 | 356 | 3.0 | 9.0 | 0.00 | 0.00 | 0.00 | 77 | 993.4 |
| 20260507002005 | 79 | 1 | 4.0 | 11.0 | 0.00 | 0.00 | 0.00 | 76 | 993.5 |
| 20260507001504 | 79 | 352 | 3.0 | 11.0 | 0.00 | 0.00 | 0.00 | 76 | 993.2 |
| 20260507001004 | 79 | 12 | 3.0 | 11.0 | 0.00 | 0.00 | 0.00 | 76 | 993.6 |
| 20260507000505 | 80 | 14 | 2.0 | 11.0 | 0.00 | 0.00 | 0.00 | 75 | 993.5 |
| 20260507000005 | 80 | 3 | 2.0 | 6.0 | 0.00 | 0.00 | 0.00 | 75 | 993.6 |
| 20260506235504 | 80 | 359 | 3.0 | 6.0 | 0.00 | 0.00 | 0.00 | 74 | 993.8 |
| 20260506235004 | 80 | 346 | 3.0 | 9.0 | 0.00 | 0.00 | 0.00 | 74 | 993.6 |
| 20260506234504 | 81 | 337 | 2.0 | 9.0 | 0.00 | 0.00 | 0.00 | 73 | 993.8 |
| 20260506233504 | 81 | 349 | 3.0 | 15.0 | 0.00 | 0.00 | 0.00 | 72 | 993.6 |
| 20260506233005 | 81 | 352 | 4.0 | 15.0 | 0.00 | 0.00 | 0.00 | 71 | 993.7 |
| 20260506232505 | 82 | 344 | 5.0 | 14.0 | 0.00 | 0.00 | 0.00 | 71 | 993.6 |
| 20260506232004 | 82 | 345 | 7.0 | 14.0 | 0.00 | 0.00 | 0.00 | 71 | 993.4 |
| 20260506231504 | 82 | 349 | 4.0 | 15.0 | 0.00 | 0.00 | 0.00 | 70 | 993.3 |
| 20260506231005 | 82 | 335 | 6.0 | 17.0 | 0.00 | 0.00 | 0.00 | 69 | 993.2 |
| 20260506230505 | 82 | 338 | 8.0 | 17.0 | 0.00 | 0.00 | 0.00 | 69 | 993.2 |
| 20260506230004 | 82 | 351 | 8.0 | 16.0 | 0.00 | 0.00 | 0.00 | 69 | 993.3 |
| 20260506225504 | 82 | 359 | 7.0 | 16.0 | 0.00 | 0.00 | 0.00 | 70 | 993.3 |
| 20260506225004 | 82 | 354 | 7.0 | 14.0 | 0.00 | 0.00 | 0.00 | 70 | 993.2 |
| 20260506224505 | 82 | 352 | 4.0 | 14.0 | 0.00 | 0.00 | 0.00 | 71 | 993.4 |
| 20260506224004 | 82 | 359 | 8.0 | 14.0 | 0.00 | 0.00 | 0.00 | 71 | 993.5 |
| 20260506222504 | 82 | 351 | 4.0 | 11.0 | 0.00 | 0.00 | 0.00 | 71 | 993.6 |
| 20260506222004 | 82 | 358 | 4.0 | 11.0 | 0.00 | 0.00 | 0.00 | 71 | 993.9 |
| 20260506221504 | 83 | 353 | 4.0 | 11.0 | 0.00 | 0.00 | 0.00 | 70 | 993.9 |
| 20260506221005 | 83 | 349 | 4.0 | 11.0 | 0.00 | 0.00 | 0.00 | 70 | 993.8 |
| 20260506220504 | 83 | 5 | 3.0 | 9.0 | 0.00 | 0.00 | 0.00 | 70 | 993.7 |
| 20260506220004 | 83 | 14 | 3.0 | 7.0 | 0.00 | 0.00 | 0.00 | 70 | 993.9 |
| 20260506215504 | 84 | 5 | 2.0 | 7.0 | 0.00 | 0.00 | 0.00 | 69 | 993.8 |
| 20260506215006 | 84 | 3 | 3.0 | 6.0 | 0.00 | 0.00 | 0.00 | 69 | 993.9 |
| 20260506213504 | 85 | 352 | 2.0 | 9.0 | 0.00 | 0.00 | 0.00 | 68 | 994.0 |
| 20260506213004 | 85 | 342 | 4.0 | 9.0 | 0.00 | 0.00 | 0.00 | 67 | 994.1 |
| 20260506212504 | 85 | 345 | 4.0 | 9.0 | 0.00 | 0.00 | 0.00 | 67 | 994.1 |
| 20260506212005 | 85 | 351 | 4.0 | 9.0 | 0.00 | 0.00 | 0.00 | 66 | 993.9 |
| 20260506211004 | 85 | 348 | 4.0 | 16.0 | 0.00 | 0.00 | 0.00 | 65 | 993.7 |
| 20260506210504 | 86 | 349 | 8.0 | 16.0 | 0.00 | 0.00 | 0.00 | 65 | 993.5 |
| 20260506205505 | 86 | 341 | 4.0 | 15.0 | 0.00 | 0.00 | 0.00 | 64 | 993.9 |
| 20260506205004 | 86 | 350 | 6.0 | 15.0 | 0.00 | 0.00 | 0.00 | 63 | 993.7 |
| 20260506204504 | 87 | 355 | 4.0 | 15.0 | 0.00 | 0.00 | 0.00 | 63 | 993.8 |
| 20260506204005 | 87 | 352 | 3.0 | 14.0 | 0.00 | 0.00 | 0.00 | 63 | 994.0 |
| 20260506203504 | 87 | 353 | 6.0 | 15.0 | 0.00 | 0.00 | 0.00 | 63 | 994.0 |
| 20260506203004 | 87 | 356 | 8.0 | 15.0 | 0.00 | 0.00 | 0.00 | 62 | 994.1 |
| 20260506202505 | 87 | 352 | 8.0 | 14.0 | 0.00 | 0.00 | 0.00 | 62 | 994.0 |
| 20260506202004 | 87 | 340 | 8.0 | 15.0 | 0.00 | 0.00 | 0.00 | 62 | 994.0 |
| 20260506201504 | 87 | 343 | 9.0 | 17.0 | 0.00 | 0.00 | 0.00 | 62 | 994.3 |
| 20260506201005 | 88 | 351 | 10.0 | 17.0 | 0.00 | 0.00 | 0.00 | 62 | 994.1 |
| 20260506200505 | 88 | 342 | 8.0 | 14.0 | 0.00 | 0.00 | 0.00 | 62 | 994.2 |
| 20260506200005 | 88 | 344 | 6.0 | 16.0 | 0.00 | 0.00 | 0.00 | 62 | 994.3 |
| 20260506195504 | 88 | 346 | 5.0 | 16.0 | 0.00 | 0.00 | 0.00 | 62 | 994.3 |
| 20260506195004 | 88 | 353 | 4.0 | 16.0 | 0.00 | 0.00 | 0.00 | 62 | 994.2 |
| 20260506194004 | 88 | 350 | 5.0 | 15.0 | 0.00 | 0.00 | 0.00 | 61 | 994.4 |
| 20260506193504 | 88 | 348 | 5.0 | 16.0 | 0.00 | 0.00 | 0.00 | 61 | 994.4 |
| 20260506193005 | 88 | 338 | 6.0 | 16.0 | 0.00 | 0.00 | 0.00 | 61 | 994.3 |
| 20260506192504 | 89 | 342 | 8.0 | 15.0 | 0.00 | 0.00 | 0.00 | 61 | 994.4 |
| 20260506192004 | 88 | 340 | 7.0 | 14.0 | 0.00 | 0.00 | 0.00 | 61 | 994.4 |
| 20260506191505 | 88 | 347 | 8.0 | 14.0 | 0.00 | 0.00 | 0.00 | 61 | 994.2 |
| 20260506191004 | 89 | 345 | 4.0 | 16.0 | 0.00 | 0.00 | 0.00 | 61 | 994.4 |
| 20260506190006 | 88 | 348 | 11.0 | 18.0 | 0.00 | 0.00 | 0.00 | 62 | 994.6 |
| 20260506185504 | 87 | 359 | 6.0 | 17.0 | 0.00 | 0.00 | 0.00 | 62 | 994.6 |
| 20260506185004 | 88 | 352 | 10.0 | 17.0 | 0.00 | 0.00 | 0.00 | 61 | 994.7 |
| 20260506184504 | 88 | 343 | 11.0 | 16.0 | 0.00 | 0.00 | 0.00 | 61 | 994.7 |
| 20260506184005 | 89 | 345 | 4.0 | 16.0 | 0.00 | 0.00 | 0.00 | 60 | 994.7 |
| 20260506183504 | 88 | 346 | 10.0 | 17.0 | 0.00 | 0.00 | 0.00 | 61 | 994.8 |
| 20260506182505 | 87 | 345 | 11.0 | 17.0 | 0.00 | 0.00 | 0.00 | 62 | 995.0 |
| 20260506182004 | 87 | 354 | 10.0 | 17.0 | 0.00 | 0.00 | 0.00 | 61 | 994.9 |
| 20260506181504 | 87 | 358 | 8.0 | 17.0 | 0.00 | 0.00 | 0.00 | 62 | 995.1 |
| 20260506181005 | 87 | 342 | 4.0 | 22.0 | 0.00 | 0.00 | 0.00 | 62 | 995.2 |
| 20260506180505 | 87 | 347 | 10.0 | 22.0 | 0.00 | 0.00 | 0.00 | 61 | 995.2 |
| 20260506175505 | 87 | 347 | 7.0 | 16.0 | 0.00 | 0.00 | 0.00 | 62 | 995.1 |
| 20260506175005 | 87 | 352 | 7.0 | 17.0 | 0.00 | 0.00 | 0.00 | 63 | 995.3 |
| 20260506174504 | 87 | 355 | 4.0 | 18.0 | 0.00 | 0.00 | 0.00 | 62 | 995.3 |
| 20260506173505 | 87 | 338 | 8.0 | 21.0 | 0.00 | 0.00 | 0.00 | 61 | 995.7 |
| 20260506173004 | 88 | 332 | 7.0 | 21.0 | 0.00 | 0.00 | 0.00 | 61 | 995.6 |
| 20260506172504 | 88 | 353 | 7.0 | 17.0 | 0.00 | 0.00 | 0.00 | 59 | 995.8 |
| 20260506172004 | 88 | 7 | 11.0 | 17.0 | 0.00 | 0.00 | 0.00 | 60 | 996.0 |
| 20260506171505 | 88 | 1 | 6.0 | 16.0 | 0.00 | 0.00 | 0.00 | 61 | 995.9 |
| 20260506170504 | 88 | 6 | 9.0 | 20.0 | 0.00 | 0.00 | 0.00 | 60 | 996.3 |
| 20260506170005 | 88 | 14 | 8.0 | 20.0 | 0.00 | 0.00 | 0.00 | 60 | 996.2 |
| 20260506165505 | 88 | 353 | 4.0 | 13.0 | 0.00 | 0.00 | 0.00 | 62 | 996.2 |
| 20260506165005 | 88 | 345 | 6.0 | 16.0 | 0.00 | 0.00 | 0.00 | 62 | 996.4 |
| 20260506164004 | 87 | 4 | 8.0 | 18.0 | 0.00 | 0.00 | 0.00 | 61 | 996.4 |
| 20260506163504 | 87 | 10 | 5.0 | 14.0 | 0.00 | 0.00 | 0.00 | 64 | 996.3 |
| 20260506162504 | 87 | 357 | 3.0 | 15.0 | 0.00 | 0.00 | 0.00 | 65 | 996.9 |
| 20260506162004 | 86 | 8 | 6.0 | 15.0 | 0.00 | 0.00 | 0.00 | 65 | 996.8 |
| 20260506161505 | 87 | 359 | 5.0 | 15.0 | 0.00 | 0.00 | 0.00 | 64 | 996.7 |
| 20260506161005 | 87 | 354 | 8.0 | 15.0 | 0.00 | 0.00 | 0.00 | 65 | 997.2 |
| 20260506160505 | 87 | 5 | 5.0 | 11.0 | 0.00 | 0.00 | 0.00 | 65 | 997.2 |
| 20260506160005 | 86 | 355 | 4.0 | 11.0 | 0.00 | 0.00 | 0.00 | 66 | 997.0 |